Flag for Finland Weather past 2 weeks in Vaasa, Finland

Now
45 °F

Passing clouds.


Feels Like: 41 °F
Forecast: 33 / 51 °F
Wind: 7 mph from Southwest

Location: Vaasa Airport


UV Index: 0 (Low)

Visibility: N/A


Pressure: 30.36 "Hg

Humidity: 34%

Dew point: 18 °F

Location of VaasaLocation

Historic Weather in Vaasa

°F

Vaasa temperature yesterday

Maximum temperature yesterday: 43 °F (at 12:50 PM)
Minimum temperature yesterday: 28 °F (at 11:50 PM)
Average temperature yesterday: 37 °F

Past Weeks' High & Low Weather Summary

 TemperatureHumidityPressure
High61 °F (Apr 21, 2:50 PM)100% (Apr 11, 4:50 AM)30.60 "Hg (Apr 11, 4:50 AM)
Low21 °F (Apr 24, 5:20 AM)22% (Apr 9, 7:20 PM)29.15 "Hg (Apr 14, 1:50 AM)
Average40 °F69%29.96 "Hg
* Reported Apr 9 7:20 PM — Apr 24 7:50 PM, Vaasa, Weather by CustomWeather, © 2014

Note: Actual official high and low records may vary slightly from our data, if they occured in-between our weather recording intervals... More about our weather records

Advertising

Historic Weather Conditions — Data for Previous 24 hours

 ConditionsComfort  
Time TempWeatherWind HumidityBarometerVisibility
7:50 PM
Apr 24
45 °FPassing clouds.12 mph34%30.36 "HgN/A
7:20 PM45 °FPassing clouds.12 mph31%30.39 "HgN/A
6:50 PM46 °FPassing clouds.12 mph29%30.39 "HgN/A
6:20 PM46 °FPassing clouds.13 mph29%30.39 "HgN/A
5:50 PM46 °FPassing clouds.12 mph32%30.42 "HgN/A
5:20 PM46 °FPassing clouds.13 mph32%30.42 "HgN/A
4:50 PM48 °FPassing clouds.13 mph27%30.42 "HgN/A
4:20 PM48 °FPassing clouds.12 mph27%30.45 "HgN/A
3:50 PM48 °FPassing clouds.13 mph27%30.45 "HgN/A
3:20 PM46 °FPassing clouds.14 mph25%30.45 "HgN/A
2:50 PM46 °FPassing clouds.13 mph25%30.48 "HgN/A
2:20 PM46 °FPassing clouds.12 mph25%30.48 "HgN/A
1:50 PM46 °FPassing clouds.12 mph27%30.48 "HgN/A
1:20 PM45 °FPassing clouds.10 mph29%30.51 "HgN/A
12:50 PM45 °FPassing clouds.9 mph31%30.51 "HgN/A
12:20 PM45 °FPassing clouds.9 mph37%30.51 "HgN/A
11:50 AM45 °FPassing clouds.8 mph29%30.54 "HgN/A
11:20 AM45 °FPassing clouds.7 mph29%30.54 "HgN/A
10:20 AM43 °FPassing clouds.8 mph29%30.54 "HgN/A
9:50 AM41 °FPassing clouds.5 mph33%30.54 "HgN/A
9:20 AM39 °FPassing clouds.6 mph39%30.57 "HgN/A
8:50 AM37 °FPassing clouds.5 mph45%30.57 "HgN/A
8:20 AM34 °FSunny.5 mph65%30.57 "Hg10 mi
7:50 AM30 °FSunny.2 mph80%30.57 "Hg10 mi
7:20 AM27 °FSunny.3 mph86%30.57 "Hg10 mi
6:50 AM25 °FSunny.1 mph86%30.57 "Hg10 mi
6:20 AM23 °FClear.2 mph86%30.57 "Hg10 mi
5:50 AM23 °FClear.1 mph86%30.60 "Hg10 mi
5:20 AM21 °FClear.3 mph93%30.60 "Hg10 mi
4:50 AM23 °FClear.3 mph86%30.60 "Hg10 mi
4:20 AM23 °FClear.2 mph86%30.60 "Hg10 mi
3:50 AM23 °FClear.1 mph86%30.60 "Hg10 mi
3:20 AM23 °FClear.1 mph93%30.60 "Hg10 mi
2:50 AM23 °FClear.No wind86%30.60 "Hg10 mi
2:20 AM23 °FClear.No wind93%30.60 "Hg10 mi
1:20 AM25 °FClear.1 mph86%30.60 "Hg10 mi
12:50 AM27 °FClear.2 mph74%30.60 "Hg10 mi
12:20 AM27 °FClear.1 mph74%30.60 "Hg10 mi
11:50 PM
Apr 23
28 °FClear.1 mph74%30.60 "Hg10 mi
11:20 PM30 °FClear.2 mph69%30.60 "Hg10 mi
10:50 PM30 °FClear.3 mph69%30.60 "Hg10 mi
10:20 PM34 °FSunny.3 mph51%30.57 "Hg10 mi
9:50 PM34 °FSunny.5 mph51%30.57 "Hg10 mi
9:20 PM36 °FSunny.7 mph48%30.57 "Hg10 mi
8:50 PM39 °FSunny.7 mph42%30.57 "Hg10 mi
8:20 PM41 °FSunny.8 mph36%30.57 "Hg10 mi
Weather by CustomWeather, © 2014

See weather overview